RESURS-DK 1 (29228 NORAD) Tracking and Keplerian Element Data

This shows tracking and keplerian element data for the satellite.

Feedback or suggestion? Click here.




ElementValue
Catalog29228
NameRESURS-DK 1
Epoch Orbit96874
Epoch Day12.67533337
Epoch Year2024
RAAN102.8058
Inclination69.9362
Eccentricity0.0007666
Argument of Perigee266.1109
Mean Anonmoly93.9177
Mean Motion15.06125238
Decay Rate3.633E-05
L11 29228U 06021A 24012.67533337 .00003633 00000+0 25455-3 0 9996
L22 29228 69.9362 102.8058 0007666 266.1109 93.9177 15.06125238968747



Live tracking and technical data element details for RESURS-DK 1 (NORAD 29228). RESURS-DK 1 can be tracked NOW for your location showing map with azimuth and elevation plus other details from your city location.







IsCatalogInMostPopularTable: catalog: 29228, numindb: 411
Update: records affected: 1



GetName: 29228 RESURS-DK 1

Hit Count: updated at: Sun, 14 Apr 2024 23:33:36 GMT